Location: Unspecified
(37.1131°N, 0.0000°E)
Time: 17:21:46
(UTC+00:00)

OPS 1127 - Visible Passes

Search period start: 04 April 2026 00:00
Search period end: 14 April 2026 00:00
Orbit: 761 x 826 km, 98.4° (Epoch: 29 March)

Date Brightness Start Highest point End Pass type
(mag) Time Alt. Az. Time Alt. Az. Time Alt. Az.
4 Apr 7.5 19:20:06 10° NE 19:24:07 23° E 19:27:47 11° SE visible
4 Apr 7.9 20:59:08 10° N 21:03:43 36° WNW 21:08:20 10° SW visible
5 Apr 8.2 18:53:33 10° ENE 18:55:17 12° E 18:57:02 10° ESE visible
5 Apr 6.7 20:30:15 10° N 20:35:17 69° WNW 20:39:55 12° SSW visible
6 Apr 6.4 20:01:42 10° NNE 20:06:45 62° ESE 20:11:15 13° S visible
6 Apr 9.3 21:43:04 10° NNW 21:45:46 15° WNW 21:48:28 10° W visible
7 Apr 7.2 19:33:34 10° NE 19:38:06 32° E 19:42:35 10° SSE visible
7 Apr 8.4 21:13:19 10° NNW 21:17:30 27° WNW 21:21:43 10° SW visible
8 Apr 7.9 19:06:07 10° NE 19:09:19 17° E 19:12:33 10° SE visible
8 Apr 7.3 20:44:14 10° N 20:49:08 50° WNW 20:54:03 10° SSW visible
9 Apr 6.4 20:15:32 10° NNE 20:20:38 86° ESE 20:25:47 10° SSW visible
9 Apr 9.5 21:58:29 10° NW 21:59:27 11° WNW 22:00:25 10° WNW visible
10 Apr 6.8 19:47:10 10° NNE 19:52:02 44° E 19:56:56 10° S visible
10 Apr 8.9 21:27:38 10° NNW 21:31:15 20° WNW 21:34:54 10° WSW visible
11 Apr 7.6 19:19:18 10° NE 19:23:20 23° E 19:27:23 10° SSE visible
11 Apr 7.9 20:58:18 10° N 21:02:56 36° WNW 21:07:36 10° SW visible
12 Apr 8.3 18:52:42 10° ENE 18:54:31 12° E 18:56:19 10° ESE visible
12 Apr 6.7 20:29:25 10° N 20:34:30 70° WNW 20:39:37 10° SSW visible
13 Apr 6.5 20:00:53 10° NNE 20:05:57 62° E 20:11:04 10° S visible
13 Apr 9.3 21:42:12 10° NNW 21:44:59 15° WNW 21:47:46 10° W visible
